Wolf Creek Pass, CO

3:36 PM MST on November 19, 2017 (GMT -0700)
Wolf Creek Pass

Weather History for KCPW - April, 2014

Change the Weather History Date:

Thursday, April 17, 2014

  Actual Average (KALS) Record (KALS)
Temperature  
Mean Temperature 27 °F -  
Max Temperature 37 °F 61 °F 74 °F (1954)
Min Temperature 17 °F 24 °F 3 °F (1999)
Degree Days  
Heating Degree Days 38    
Moisture  
Dew Point 16 °F    
Average Humidity 63    
Maximum Humidity 100    
Minimum Humidity 48    
Precipitation  
Precipitation 0.00 in - - ()
Sea Level Pressure  
Sea Level Pressure 30.24 in    
Wind  
Wind Speed 11 mph (SW)    
Max Wind Speed 26 mph    
Max Gust Speed 34 mph    
Visibility 10 miles    
Events      
Averages and records for this station are not official NWS values.
T = Trace of Precipitation, MM = Missing Value Source: NWS Daily Summary

Daily Weather History Graph

Daily Weather History Graph

Search for Another Location

Airport or City:

Trip Planner

Search our weather history database for the weather conditions in past years. The results will help you decide how hot, cold, wet, or windy it might be!

Date:

Astronomy

Apr. 17, 2014 Rise Set
Actual Time 6:29 AM MDT 7:44 PM MDT
Civil Twilight 6:02 AM MDT 8:11 PM MDT
Nautical Twilight 5:30 AM MDT 8:44 PM MDT
Astronomical Twilight 4:56 AM MDT 9:17 PM MDT
Moon 10:30 PM MDT (4/17) 8:05 AM MDT (4/17)
Length of Visible Light 14h 09m
Length of Day
13h 14m
Waning Gibbous, 93% of the Moon is Illuminated
Apr 17
Waning Gibbous
Apr 22
Last Quarter
Apr 29
New
May 6
First Quarter
May 14
Full

Hourly Weather History & Observations

Time (MDT) Temp. Windchill Dew Point Humidity Pressure Visibility Wind Dir Wind Speed Gust Speed Precip Events Conditions
12:09 AM 21.2 °F 10.9 °F 21.2 °F 100% 30.12 in 3.0 mi NE 9.2 mph - N/A   Mostly Cloudy
12:49 AM 19.4 °F 7.2 °F 19.4 °F 100% 30.13 in 3.0 mi NE 11.5 mph - N/A   Mostly Cloudy
12:59 AM 19.4 °F 7.2 °F 19.4 °F 100% 30.12 in 10.0 mi NE 11.5 mph - N/A   Scattered Clouds
1:25 AM 19.4 °F 7.9 °F 19.4 °F 100% 30.13 in 10.0 mi NE 10.4 mph - N/A   Clear
1:58 AM 19.4 °F 5.5 °F 17.6 °F 93% 30.13 in 10.0 mi NE 15.0 mph - N/A   Clear
2:01 AM 19.4 °F 6.0 °F 17.6 °F 93% 30.13 in 10.0 mi NE 13.8 mph - N/A   Clear
2:55 AM 19.4 °F 7.2 °F 15.8 °F 86% 30.12 in 10.0 mi ENE 11.5 mph - N/A   Clear
3:18 AM 17.6 °F 5.0 °F 15.8 °F 93% 30.12 in 10.0 mi ENE 11.5 mph - N/A   Clear
3:26 AM 19.4 °F 7.9 °F 15.8 °F 86% 30.12 in 10.0 mi ENE 10.4 mph - N/A   Clear
3:57 AM 19.4 °F 7.9 °F 14.0 °F 80% 30.13 in 10.0 mi NE 10.4 mph - N/A   Clear
4:18 AM 19.4 °F 11.5 °F 14.0 °F 80% 30.14 in 10.0 mi ENE 5.8 mph - N/A   Clear
4:35 AM 19.4 °F 11.5 °F 12.2 °F 74% 30.14 in 10.0 mi NNE 5.8 mph - N/A   Clear
4:55 AM 19.4 °F 12.8 °F 12.2 °F 74% 30.14 in 10.0 mi NNE 4.6 mph - N/A   Clear
5:16 AM 19.4 °F - 12.2 °F 74% 30.14 in 10.0 mi Calm Calm - N/A   Clear
5:37 AM 17.6 °F 10.7 °F 10.4 °F 73% 30.15 in 10.0 mi WNW 4.6 mph - N/A   Clear
5:56 AM 19.4 °F 14.3 °F 8.6 °F 63% 30.15 in 10.0 mi North 3.5 mph - N/A   Clear
6:12 AM 19.4 °F - 8.6 °F 63% 30.16 in 10.0 mi Calm Calm - N/A   Clear
6:35 AM 19.4 °F - 12.2 °F 74% 30.17 in 10.0 mi Calm Calm - N/A   Clear
6:50 AM 19.4 °F - 8.6 °F 63% 30.19 in 10.0 mi Calm Calm - N/A   Clear
7:05 AM 21.2 °F 16.4 °F 8.6 °F 58% 30.19 in 10.0 mi NE 3.5 mph - N/A   Clear
7:35 AM 23.0 °F - 10.4 °F 59% 30.19 in 10.0 mi Calm Calm - N/A   Clear
7:50 AM 24.8 °F - 10.4 °F 54% 30.20 in 10.0 mi Calm Calm - N/A   Clear
8:18 AM 24.8 °F - 12.2 °F 59% 30.22 in 10.0 mi Calm Calm - N/A   Clear
9:17 AM 26.6 °F 19.1 °F 12.2 °F 55% 30.24 in 10.0 mi SSW 6.9 mph - N/A   Clear
9:23 AM 26.6 °F 19.1 °F 12.2 °F 55% 30.24 in 10.0 mi SSW 6.9 mph - N/A   Clear
10:18 AM 28.4 °F 18.0 °F 17.6 °F 64% 30.26 in 10.0 mi SW 12.7 mph 17.3 mph N/A   Clear
10:27 AM 30.2 °F 20.8 °F 17.6 °F 60% 30.26 in 10.0 mi SSW 11.5 mph 19.6 mph N/A   Clear
10:54 AM 30.2 °F 21.3 °F 17.6 °F 60% 30.27 in 10.0 mi SW 10.4 mph 16.1 mph N/A   Clear
11:18 AM 32.0 °F 23.0 °F 19.4 °F 60% 30.28 in 10.0 mi SSW 11.5 mph 17.3 mph N/A   Clear
11:36 AM 32.0 °F 24.8 °F 19.4 °F 60% 30.28 in 10.0 mi SW 8.1 mph 17.3 mph N/A   Scattered Clouds
11:50 AM 32.0 °F 24.2 °F 19.4 °F 60% 30.28 in 10.0 mi SSW 9.2 mph 16.1 mph N/A   Scattered Clouds
12:14 PM 32.0 °F 25.6 °F 19.4 °F 60% 30.28 in 10.0 mi SW 6.9 mph - N/A   Scattered Clouds
12:23 PM 32.0 °F 24.8 °F 19.4 °F 60% 30.28 in 10.0 mi SSW 8.1 mph - N/A   Scattered Clouds
12:54 PM 32.0 °F 22.5 °F 17.6 °F 55% 30.29 in 10.0 mi SSW 12.7 mph 16.1 mph N/A   Scattered Clouds
1:17 PM 33.8 °F 25.8 °F 19.4 °F 56% 30.29 in 10.0 mi SW 10.4 mph 16.1 mph N/A   Scattered Clouds
1:35 PM 33.8 °F 23.2 °F 17.6 °F 52% 30.29 in 10.0 mi SSW 17.3 mph 20.7 mph N/A   Clear
2:07 PM 35.6 °F 26.6 °F 19.4 °F 52% 30.29 in 10.0 mi SW 13.8 mph 19.6 mph N/A   Mostly Cloudy
2:36 PM 33.8 °F 27.0 °F 19.4 °F 56% 30.29 in 10.0 mi SW 8.1 mph 23.0 mph N/A   Scattered Clouds
2:53 PM 35.6 °F 26.2 °F 19.4 °F 52% 30.29 in 10.0 mi SSW 15.0 mph 23.0 mph N/A   Scattered Clouds
3:18 PM 35.6 °F 27.5 °F 19.4 °F 52% 30.29 in 10.0 mi WSW 11.5 mph 19.6 mph N/A   Scattered Clouds
3:29 PM 35.6 °F 25.9 °F 19.4 °F 52% 30.29 in 10.0 mi WSW 16.1 mph 26.5 mph N/A   Scattered Clouds
3:43 PM 37.4 °F 26.6 °F 19.4 °F 48% 30.29 in 10.0 mi SW 21.9 mph 27.6 mph N/A   Clear
4:16 PM 35.6 °F 28.0 °F 19.4 °F 52% 30.29 in 10.0 mi SW 10.4 mph 26.5 mph N/A   Clear
4:37 PM 35.6 °F 24.2 °F 19.4 °F 52% 30.29 in 10.0 mi SW 21.9 mph 31.1 mph N/A   Clear
4:51 PM 35.6 °F 26.2 °F 19.4 °F 52% 30.29 in 10.0 mi SW 15.0 mph 27.6 mph N/A   Clear
5:18 PM 35.6 °F 25.9 °F 19.4 °F 52% 30.29 in 10.0 mi SW 16.1 mph 29.9 mph N/A   Clear
5:26 PM 35.6 °F 28.6 °F 19.4 °F 52% 30.29 in 10.0 mi SSW 9.2 mph 21.9 mph N/A   Clear
5:48 PM 35.6 °F 26.2 °F 19.4 °F 52% 30.29 in 10.0 mi SSW 15.0 mph 26.5 mph N/A   Clear
6:10 PM 35.6 °F 26.6 °F 19.4 °F 52% 30.29 in 10.0 mi SW 13.8 mph 23.0 mph N/A   Clear
6:38 PM 33.8 °F 22.8 °F 17.6 °F 52% 30.29 in 10.0 mi SW 18.4 mph 25.3 mph N/A   Clear
6:52 PM 32.0 °F 21.2 °F 17.6 °F 55% 30.29 in 10.0 mi SW 16.1 mph 32.2 mph N/A   Clear
7:37 PM 32.0 °F 20.5 °F 17.6 °F 55% 30.31 in 10.0 mi SW 18.4 mph 26.5 mph N/A   Clear
7:48 PM 32.0 °F 19.2 °F 17.6 °F 55% 30.30 in 10.0 mi SW 23.0 mph 28.8 mph N/A   Clear
8:11 PM 32.0 °F 19.5 °F 17.6 °F 55% 30.31 in 10.0 mi SW 21.9 mph 28.8 mph N/A   Clear
8:34 PM 30.2 °F 18.5 °F 17.6 °F 60% 30.32 in 10.0 mi SW 17.3 mph 31.1 mph N/A   Clear
8:56 PM 30.2 °F 17.8 °F 17.6 °F 60% 30.32 in 10.0 mi SW 19.6 mph 26.5 mph N/A   Clear
9:18 PM 30.2 °F 16.8 °F 17.6 °F 60% 30.33 in 10.0 mi SW 23.0 mph 31.1 mph N/A   Clear
9:34 PM 30.2 °F 16.8 °F 17.6 °F 60% 30.33 in 10.0 mi SW 23.0 mph 27.6 mph N/A   Clear
9:58 PM 30.2 °F 16.2 °F 15.8 °F 55% 30.33 in 10.0 mi SW 25.3 mph 34.5 mph N/A   Clear
10:07 PM 30.2 °F 16.8 °F 15.8 °F 55% 30.34 in 10.0 mi SW 23.0 mph 34.5 mph N/A   Clear
10:36 PM 30.2 °F 15.9 °F 14.0 °F 51% 30.34 in 10.0 mi SW 26.5 mph 34.5 mph N/A   Clear
10:58 PM 30.2 °F 16.2 °F 14.0 °F 51% 30.34 in 10.0 mi SW 25.3 mph 33.4 mph N/A   Clear
11:16 PM 30.2 °F 17.8 °F 14.0 °F 51% 30.34 in 10.0 mi SW 19.6 mph 31.1 mph N/A   Clear
11:29 PM 28.4 °F 15.4 °F 14.0 °F 55% 30.34 in 10.0 mi SW 19.6 mph 24.2 mph N/A   Clear
11:58 PM 28.4 °F 14.7 °F 14.0 °F 55% 30.35 in 10.0 mi SW 21.9 mph 25.3 mph N/A   Clear